Year,Month,Day,Hour,Minute,Value (Times are PST for temperature in C)
2017,10,26,00,00,8.60
2017,10,26,00,01,8.60
2017,10,26,00,02,8.60
2017,10,26,00,03,8.60
2017,10,26,00,04,8.60
2017,10,26,00,05,8.50
2017,10,26,00,06,8.50
2017,10,26,00,07,8.40
2017,10,26,00,08,8.30
2017,10,26,00,09,8.30
2017,10,26,00,10,8.30
2017,10,26,00,11,8.30
2017,10,26,00,12,8.20
2017,10,26,00,13,8.20
2017,10,26,00,14,8.20
2017,10,26,00,15,8.10
2017,10,26,00,16,8.10
2017,10,26,00,17,8.10
2017,10,26,00,18,8.10
2017,10,26,00,19,8.10
2017,10,26,00,20,8.10
2017,10,26,00,21,8.00
2017,10,26,00,22,8.00
2017,10,26,00,23,8.00
2017,10,26,00,24,8.00
2017,10,26,00,25,8.00
2017,10,26,00,26,8.10
2017,10,26,00,27,8.00
2017,10,26,00,28,8.00
2017,10,26,00,29,8.00
2017,10,26,00,30,8.00
2017,10,26,00,31,8.00
2017,10,26,00,32,8.00
2017,10,26,00,33,7.90
2017,10,26,00,34,7.90
2017,10,26,00,35,7.90
2017,10,26,00,36,7.90
2017,10,26,00,37,7.90
2017,10,26,00,38,7.80
2017,10,26,00,39,7.80
2017,10,26,00,40,7.80
2017,10,26,00,41,7.80
2017,10,26,00,42,7.80
2017,10,26,00,43,7.70
2017,10,26,00,44,7.70
2017,10,26,00,45,7.70
2017,10,26,00,46,7.70
2017,10,26,00,47,7.70
2017,10,26,00,48,7.70
2017,10,26,00,49,7.70
2017,10,26,00,50,7.70
2017,10,26,00,51,7.70
2017,10,26,00,52,7.70
2017,10,26,00,53,7.70
2017,10,26,00,54,7.70
2017,10,26,00,55,7.70
2017,10,26,00,56,7.60
2017,10,26,00,57,7.60
2017,10,26,00,58,7.60
2017,10,26,00,59,7.60
2017,10,26,01,00,7.60
2017,10,26,01,01,7.60
2017,10,26,01,02,7.60
2017,10,26,01,03,7.60
2017,10,26,01,04,7.60
2017,10,26,01,05,7.60
2017,10,26,01,06,7.50
2017,10,26,01,07,7.50
2017,10,26,01,08,7.50
2017,10,26,01,09,7.50
2017,10,26,01,10,7.50
2017,10,26,01,11,7.50
2017,10,26,01,12,7.50
2017,10,26,01,13,7.50
2017,10,26,01,14,7.50
2017,10,26,01,15,7.60
2017,10,26,01,16,7.60
2017,10,26,01,17,7.60
2017,10,26,01,18,7.60
2017,10,26,01,19,7.60
2017,10,26,01,20,7.60
2017,10,26,01,21,7.60
2017,10,26,01,22,7.60
2017,10,26,01,23,7.60
2017,10,26,01,24,7.60
2017,10,26,01,25,7.60
2017,10,26,01,26,7.60
2017,10,26,01,27,7.60
2017,10,26,01,28,7.60
2017,10,26,01,29,7.60
2017,10,26,01,30,7.60
2017,10,26,01,31,7.60
2017,10,26,01,32,7.60
2017,10,26,01,33,7.70
2017,10,26,01,34,7.70
2017,10,26,01,35,7.70
2017,10,26,01,36,7.70
2017,10,26,01,37,7.70
2017,10,26,01,38,7.70
2017,10,26,01,39,7.70
2017,10,26,01,40,7.70
2017,10,26,01,41,7.70
2017,10,26,01,42,7.70
2017,10,26,01,43,7.70
2017,10,26,01,44,7.70
2017,10,26,01,45,7.70
2017,10,26,01,46,7.70
2017,10,26,01,47,7.70
2017,10,26,01,48,7.70
2017,10,26,01,49,7.60
2017,10,26,01,50,7.60
2017,10,26,01,51,7.60
2017,10,26,01,52,7.60
2017,10,26,01,53,7.60
2017,10,26,01,54,7.60
2017,10,26,01,55,7.60
2017,10,26,01,56,7.60
2017,10,26,01,57,7.60
2017,10,26,01,58,7.60
2017,10,26,01,59,7.60
2017,10,26,02,00,7.60
2017,10,26,02,01,7.60
2017,10,26,02,02,7.60
2017,10,26,02,03,7.60
2017,10,26,02,04,7.60
2017,10,26,02,05,7.60
2017,10,26,02,06,7.60
2017,10,26,02,07,7.60
2017,10,26,02,08,7.60
2017,10,26,02,09,7.50
2017,10,26,02,10,7.50
2017,10,26,02,11,7.50
2017,10,26,02,12,7.50
2017,10,26,02,13,7.50
2017,10,26,02,14,7.50
2017,10,26,02,15,7.50
2017,10,26,02,16,7.40
2017,10,26,02,17,7.40
2017,10,26,02,18,7.40
2017,10,26,02,19,7.40
2017,10,26,02,20,7.40
2017,10,26,02,21,7.40
2017,10,26,02,22,7.40
2017,10,26,02,23,7.40
2017,10,26,02,24,7.40
2017,10,26,02,25,7.40
2017,10,26,02,26,7.40
2017,10,26,02,27,7.40
2017,10,26,02,28,7.40
2017,10,26,02,29,7.30
2017,10,26,02,30,7.30
2017,10,26,02,31,7.40
2017,10,26,02,32,7.40
2017,10,26,02,33,7.40
2017,10,26,02,34,7.40
2017,10,26,02,35,7.40
2017,10,26,02,36,7.40
2017,10,26,02,37,7.40
2017,10,26,02,38,7.40
2017,10,26,02,39,7.40
2017,10,26,02,40,7.40
2017,10,26,02,41,7.40
2017,10,26,02,42,7.40
2017,10,26,02,43,7.40
2017,10,26,02,44,7.40
2017,10,26,02,45,7.40
2017,10,26,02,46,7.40
2017,10,26,02,47,7.40
2017,10,26,02,48,7.40
2017,10,26,02,49,7.40
2017,10,26,02,50,7.40
2017,10,26,02,51,7.40
2017,10,26,02,52,7.40
2017,10,26,02,53,7.40
2017,10,26,02,54,7.40
2017,10,26,02,55,7.40
2017,10,26,02,56,7.40
2017,10,26,02,57,7.40
2017,10,26,02,58,7.40
2017,10,26,02,59,7.40
2017,10,26,03,00,7.40
2017,10,26,03,01,7.40
2017,10,26,03,02,7.40
2017,10,26,03,03,7.40
2017,10,26,03,04,7.40
2017,10,26,03,05,7.30
2017,10,26,03,06,7.30
2017,10,26,03,07,7.30
2017,10,26,03,08,7.30
2017,10,26,03,09,7.20
2017,10,26,03,10,7.20
2017,10,26,03,11,7.20
2017,10,26,03,12,7.20
2017,10,26,03,13,7.20
2017,10,26,03,14,7.20
2017,10,26,03,15,7.10
2017,10,26,03,16,7.10
2017,10,26,03,17,7.10
2017,10,26,03,18,7.10
2017,10,26,03,19,7.10
2017,10,26,03,20,7.10
2017,10,26,03,21,7.10
2017,10,26,03,22,7.10
2017,10,26,03,23,7.10
2017,10,26,03,24,7.10
2017,10,26,03,25,7.10
2017,10,26,03,26,7.10
2017,10,26,03,27,7.10
2017,10,26,03,28,7.10
2017,10,26,03,29,7.00
2017,10,26,03,30,7.00
2017,10,26,03,31,7.00
2017,10,26,03,32,7.00
2017,10,26,03,33,7.00
2017,10,26,03,34,7.00
2017,10,26,03,35,6.90
2017,10,26,03,36,6.90
2017,10,26,03,37,6.90
2017,10,26,03,38,6.90
2017,10,26,03,39,6.90
2017,10,26,03,40,6.90
2017,10,26,03,41,6.90
2017,10,26,03,42,6.90
2017,10,26,03,43,6.90
2017,10,26,03,44,6.90
2017,10,26,03,45,6.90
2017,10,26,03,46,6.90
2017,10,26,03,47,6.90
2017,10,26,03,48,6.90
2017,10,26,03,49,6.80
2017,10,26,03,50,6.80
2017,10,26,03,51,6.80
2017,10,26,03,52,6.80
2017,10,26,03,53,6.80
2017,10,26,03,54,6.80
2017,10,26,03,55,6.80
2017,10,26,03,56,6.80
2017,10,26,03,57,6.80
2017,10,26,03,58,6.80
2017,10,26,03,59,6.80
2017,10,26,04,00,6.70
2017,10,26,04,01,6.70
2017,10,26,04,02,6.70
2017,10,26,04,03,6.70
2017,10,26,04,04,6.70
2017,10,26,04,05,6.70
2017,10,26,04,06,6.60
2017,10,26,04,07,6.60
2017,10,26,04,08,6.60
2017,10,26,04,09,6.60
2017,10,26,04,10,6.60
2017,10,26,04,11,6.60
2017,10,26,04,12,6.60
2017,10,26,04,13,6.60
2017,10,26,04,14,6.60
2017,10,26,04,15,6.60
2017,10,26,04,16,6.60
2017,10,26,04,17,6.60
2017,10,26,04,18,6.50
2017,10,26,04,19,6.50
2017,10,26,04,20,6.50
2017,10,26,04,21,6.40
2017,10,26,04,22,6.40
2017,10,26,04,23,6.40
2017,10,26,04,24,6.40
2017,10,26,04,25,6.30
2017,10,26,04,26,6.30
2017,10,26,04,27,6.30
2017,10,26,04,28,6.30
2017,10,26,04,29,6.20
2017,10,26,04,30,6.20
2017,10,26,04,31,6.20
2017,10,26,04,32,6.20
2017,10,26,04,33,6.20
2017,10,26,04,34,6.20
2017,10,26,04,35,6.20
2017,10,26,04,36,6.20
2017,10,26,04,37,6.20
2017,10,26,04,38,6.20
2017,10,26,04,39,6.10
2017,10,26,04,40,6.10
2017,10,26,04,41,6.10
2017,10,26,04,42,6.10
2017,10,26,04,43,6.10
2017,10,26,04,44,6.10
2017,10,26,04,45,6.10
2017,10,26,04,46,6.10
2017,10,26,04,47,6.20
2017,10,26,04,48,6.20
2017,10,26,04,49,6.20
2017,10,26,04,50,6.20
2017,10,26,04,51,6.20
2017,10,26,04,52,6.20
2017,10,26,04,53,6.20
2017,10,26,04,54,6.20
2017,10,26,04,55,6.20
2017,10,26,04,56,6.20
2017,10,26,04,57,6.20
2017,10,26,04,58,6.20
2017,10,26,04,59,6.20
2017,10,26,05,00,6.20
2017,10,26,05,01,6.20
2017,10,26,05,02,6.20
2017,10,26,05,03,6.20
2017,10,26,05,04,6.20
2017,10,26,05,05,6.20
2017,10,26,05,06,6.20
2017,10,26,05,07,6.20
2017,10,26,05,08,6.20
2017,10,26,05,09,6.20
2017,10,26,05,10,6.20
2017,10,26,05,11,6.20
2017,10,26,05,12,6.20
2017,10,26,05,13,6.10
2017,10,26,05,14,6.10
2017,10,26,05,15,6.00
2017,10,26,05,16,6.00
2017,10,26,05,17,6.00
2017,10,26,05,18,6.00
2017,10,26,05,19,6.00
2017,10,26,05,20,6.00
2017,10,26,05,21,6.10
2017,10,26,05,22,6.10
2017,10,26,05,23,6.10
2017,10,26,05,24,6.20
2017,10,26,05,25,6.20
2017,10,26,05,26,6.20
2017,10,26,05,27,6.30
2017,10,26,05,28,6.30
2017,10,26,05,29,6.40
2017,10,26,05,30,6.40
2017,10,26,05,31,6.40
2017,10,26,05,32,6.50
2017,10,26,05,33,6.50
2017,10,26,05,34,6.50
2017,10,26,05,35,6.60
2017,10,26,05,36,6.60
2017,10,26,05,37,6.60
2017,10,26,05,38,6.60
2017,10,26,05,39,6.60
2017,10,26,05,40,6.60
2017,10,26,05,41,6.60
2017,10,26,05,42,6.60
2017,10,26,05,43,6.60
2017,10,26,05,44,6.60
2017,10,26,05,45,6.60
2017,10,26,05,46,6.60
2017,10,26,05,47,6.60
2017,10,26,05,48,6.60
2017,10,26,05,49,6.60
2017,10,26,05,50,6.60
2017,10,26,05,51,6.60
2017,10,26,05,52,6.60
2017,10,26,05,53,6.60
2017,10,26,05,54,6.60
2017,10,26,05,55,6.60
2017,10,26,05,56,6.60
2017,10,26,05,57,6.70
2017,10,26,05,58,6.70
2017,10,26,05,59,6.70
2017,10,26,06,00,6.70
2017,10,26,06,01,6.70
2017,10,26,06,02,6.70
2017,10,26,06,03,6.70
2017,10,26,06,04,6.70
2017,10,26,06,05,6.70
2017,10,26,06,06,6.70
2017,10,26,06,07,6.70
2017,10,26,06,08,6.70
2017,10,26,06,09,6.70
2017,10,26,06,10,6.70
2017,10,26,06,11,6.80
2017,10,26,06,12,6.80
2017,10,26,06,13,6.80
2017,10,26,06,14,6.80
2017,10,26,06,15,6.80
2017,10,26,06,16,6.80
2017,10,26,06,17,6.80
2017,10,26,06,18,6.80
2017,10,26,06,19,6.80
2017,10,26,06,20,6.90
2017,10,26,06,21,6.90
2017,10,26,06,22,6.90
2017,10,26,06,23,6.90
2017,10,26,06,24,6.90
2017,10,26,06,25,6.90
2017,10,26,06,26,6.90
2017,10,26,06,27,6.90
2017,10,26,06,28,7.00
2017,10,26,06,29,7.00
2017,10,26,06,30,7.00
2017,10,26,06,31,7.00
2017,10,26,06,32,7.00
2017,10,26,06,33,7.00
2017,10,26,06,34,7.00
2017,10,26,06,35,7.10
2017,10,26,06,36,7.10
2017,10,26,06,37,7.10
2017,10,26,06,38,7.10
2017,10,26,06,39,7.10
2017,10,26,06,40,7.10
2017,10,26,06,41,7.10
2017,10,26,06,42,7.10
2017,10,26,06,43,7.10
2017,10,26,06,44,7.10
2017,10,26,06,45,7.10
2017,10,26,06,46,7.20
2017,10,26,06,47,7.20
2017,10,26,06,48,7.20
2017,10,26,06,49,7.20
2017,10,26,06,50,7.20
2017,10,26,06,51,7.20
2017,10,26,06,52,7.20
2017,10,26,06,53,7.20
2017,10,26,06,54,7.20
2017,10,26,06,55,7.20
2017,10,26,06,56,7.30
2017,10,26,06,57,7.30
2017,10,26,06,58,7.30
2017,10,26,06,59,7.30
2017,10,26,07,00,7.30
2017,10,26,07,01,7.30
2017,10,26,07,02,7.30
2017,10,26,07,03,7.30
2017,10,26,07,04,7.30
2017,10,26,07,05,7.30
2017,10,26,07,06,7.30
2017,10,26,07,07,7.30
2017,10,26,07,08,7.40
2017,10,26,07,09,7.40
2017,10,26,07,10,7.40
2017,10,26,07,11,7.40
2017,10,26,07,12,7.40
2017,10,26,07,13,7.40
2017,10,26,07,14,7.40
2017,10,26,07,15,7.40
2017,10,26,07,16,7.40
2017,10,26,07,17,7.40
2017,10,26,07,18,7.50
2017,10,26,07,19,7.50
2017,10,26,07,20,7.50
2017,10,26,07,21,7.50
2017,10,26,07,22,7.50
2017,10,26,07,23,7.50
2017,10,26,07,24,7.50
2017,10,26,07,25,7.50
2017,10,26,07,26,7.50
2017,10,26,07,27,7.50
2017,10,26,07,28,7.60
2017,10,26,07,29,7.50
2017,10,26,07,30,7.60
2017,10,26,07,31,7.60
2017,10,26,07,32,7.60
2017,10,26,07,33,7.60
2017,10,26,07,34,7.60
2017,10,26,07,35,7.60
2017,10,26,07,36,7.60
2017,10,26,07,37,7.60
2017,10,26,07,38,7.60
2017,10,26,07,39,7.60
2017,10,26,07,40,7.60
2017,10,26,07,41,7.60
2017,10,26,07,42,7.60
2017,10,26,07,43,7.60
2017,10,26,07,44,7.60
2017,10,26,07,45,7.60
2017,10,26,07,46,7.60
2017,10,26,07,47,7.60
2017,10,26,07,48,7.70
2017,10,26,07,49,7.70
2017,10,26,07,50,7.70
2017,10,26,07,51,7.70
2017,10,26,07,52,7.70
2017,10,26,07,53,7.70
2017,10,26,07,54,7.70
2017,10,26,07,55,7.70
2017,10,26,07,56,7.70
2017,10,26,07,57,7.70
2017,10,26,07,58,7.70
2017,10,26,07,59,7.70
2017,10,26,08,00,7.70
2017,10,26,08,01,7.70
2017,10,26,08,02,7.70
2017,10,26,08,03,7.70
2017,10,26,08,04,7.70
2017,10,26,08,05,7.70
2017,10,26,08,06,7.70
2017,10,26,08,07,7.70
2017,10,26,08,08,7.70
2017,10,26,08,09,7.70
2017,10,26,08,10,7.70
2017,10,26,08,11,7.70
2017,10,26,08,12,7.80
2017,10,26,08,13,7.80
2017,10,26,08,14,7.80
2017,10,26,08,15,7.80
2017,10,26,08,16,7.80
2017,10,26,08,17,7.80
2017,10,26,08,18,7.80
2017,10,26,08,19,7.80
2017,10,26,08,20,7.80
2017,10,26,08,21,7.80
2017,10,26,08,22,7.80
2017,10,26,08,23,7.80
2017,10,26,08,24,7.80
2017,10,26,08,25,7.80
2017,10,26,08,26,7.80
2017,10,26,08,27,7.80
2017,10,26,08,28,7.80
2017,10,26,08,29,7.80
2017,10,26,08,30,7.80
2017,10,26,08,31,7.90
2017,10,26,08,32,7.90
2017,10,26,08,33,7.90
2017,10,26,08,34,7.90
2017,10,26,08,35,7.90
2017,10,26,08,36,7.90
2017,10,26,08,37,7.90
2017,10,26,08,38,7.90
2017,10,26,08,39,7.90
2017,10,26,08,40,7.90
2017,10,26,08,41,7.90
2017,10,26,08,42,7.90
2017,10,26,08,43,7.90
2017,10,26,08,44,7.90
2017,10,26,08,45,7.90
2017,10,26,08,46,7.90
2017,10,26,08,47,8.00
2017,10,26,08,48,8.00
2017,10,26,08,49,8.00
2017,10,26,08,50,8.00
2017,10,26,08,51,8.00
2017,10,26,08,52,8.00
2017,10,26,08,53,8.10
2017,10,26,08,54,8.10
2017,10,26,08,55,8.10
2017,10,26,08,56,8.10
2017,10,26,08,57,8.10
2017,10,26,08,58,8.10
2017,10,26,08,59,8.10
2017,10,26,09,00,8.10
2017,10,26,09,01,8.10
2017,10,26,09,02,8.10
2017,10,26,09,03,8.20
2017,10,26,09,04,8.20
2017,10,26,09,05,8.20
2017,10,26,09,06,8.20
2017,10,26,09,07,8.20
2017,10,26,09,08,8.20
2017,10,26,09,09,8.20
2017,10,26,09,10,8.20
2017,10,26,09,11,8.10
2017,10,26,09,12,8.10
2017,10,26,09,13,8.10
2017,10,26,09,14,8.10
2017,10,26,09,15,8.10
2017,10,26,09,16,8.10
2017,10,26,09,17,8.10
2017,10,26,09,18,8.10
2017,10,26,09,19,8.10
2017,10,26,09,20,8.00
2017,10,26,09,21,8.00
2017,10,26,09,22,8.00
2017,10,26,09,23,8.00
2017,10,26,09,24,7.90
2017,10,26,09,25,7.90
2017,10,26,09,26,7.90
2017,10,26,09,27,7.90
2017,10,26,09,28,7.80
2017,10,26,09,29,7.80
2017,10,26,09,30,7.80
2017,10,26,09,31,7.80
2017,10,26,09,32,7.70
2017,10,26,09,33,7.70
2017,10,26,09,34,7.70
2017,10,26,09,35,7.70
2017,10,26,09,36,7.60
2017,10,26,09,37,7.60
2017,10,26,09,38,7.60
2017,10,26,09,39,7.60
2017,10,26,09,40,7.60
2017,10,26,09,41,7.60
2017,10,26,09,42,7.60
2017,10,26,09,43,7.60
2017,10,26,09,44,7.60
2017,10,26,09,45,7.60
2017,10,26,09,46,7.60
2017,10,26,09,47,7.50
2017,10,26,09,48,7.50
2017,10,26,09,49,7.60
2017,10,26,09,50,7.50
2017,10,26,09,51,7.50
2017,10,26,09,52,7.50
2017,10,26,09,53,7.50
2017,10,26,09,54,7.50
2017,10,26,09,55,7.50
2017,10,26,09,56,7.50
2017,10,26,09,57,7.50
2017,10,26,09,58,7.50
2017,10,26,09,59,7.50
2017,10,26,10,00,7.60
2017,10,26,10,01,7.50
2017,10,26,10,02,7.60
2017,10,26,10,03,7.60
2017,10,26,10,04,7.60
2017,10,26,10,05,7.60
2017,10,26,10,06,7.60
2017,10,26,10,07,7.60
2017,10,26,10,08,7.60
2017,10,26,10,09,7.60
2017,10,26,10,10,7.60
2017,10,26,10,11,7.70
2017,10,26,10,12,7.70
2017,10,26,10,13,7.70
2017,10,26,10,14,7.80
2017,10,26,10,15,7.80
2017,10,26,10,16,7.90
2017,10,26,10,17,8.00
2017,10,26,10,18,8.10
2017,10,26,10,19,8.20
2017,10,26,10,20,8.40
2017,10,26,10,21,8.50
2017,10,26,10,22,8.60
2017,10,26,10,23,8.70
2017,10,26,10,24,8.80
2017,10,26,10,25,8.90
2017,10,26,10,26,9.00
2017,10,26,10,27,9.10
2017,10,26,10,28,9.20
2017,10,26,10,29,9.30
2017,10,26,10,30,9.30
2017,10,26,10,31,9.40
2017,10,26,10,32,9.40
2017,10,26,10,33,9.40
2017,10,26,10,34,9.40
2017,10,26,10,35,9.50
2017,10,26,10,36,9.50
2017,10,26,10,37,9.50
2017,10,26,10,38,9.50
2017,10,26,10,39,9.50
2017,10,26,10,40,9.50
2017,10,26,10,41,9.60
2017,10,26,10,42,9.60
2017,10,26,10,43,9.60
2017,10,26,10,44,9.60
2017,10,26,10,45,9.60
2017,10,26,10,46,9.60
2017,10,26,10,47,9.60
2017,10,26,10,48,9.60
2017,10,26,10,49,9.70
2017,10,26,10,50,9.70
2017,10,26,10,51,9.70
2017,10,26,10,52,9.70
2017,10,26,10,53,9.70
2017,10,26,10,54,9.80
2017,10,26,10,55,9.80
2017,10,26,10,56,9.80
2017,10,26,10,57,9.80
2017,10,26,10,58,9.80
2017,10,26,10,59,9.90
2017,10,26,11,00,9.90
2017,10,26,11,01,9.90
2017,10,26,11,02,10.00
2017,10,26,11,03,10.00
2017,10,26,11,04,10.10
2017,10,26,11,05,10.10
2017,10,26,11,06,10.10
2017,10,26,11,07,10.20
2017,10,26,11,08,10.20
2017,10,26,11,09,10.20
2017,10,26,11,10,10.30
2017,10,26,11,11,10.30
2017,10,26,11,12,10.30
2017,10,26,11,13,10.40
2017,10,26,11,14,10.40
2017,10,26,11,15,10.40
2017,10,26,11,16,10.50
2017,10,26,11,17,10.50
2017,10,26,11,18,10.60
2017,10,26,11,19,10.60
2017,10,26,11,20,10.60
2017,10,26,11,21,10.70
2017,10,26,11,22,10.70
2017,10,26,11,23,10.70
2017,10,26,11,24,10.70
2017,10,26,11,25,10.70
2017,10,26,11,26,10.80
2017,10,26,11,27,10.80
2017,10,26,11,28,10.80
2017,10,26,11,29,10.80
2017,10,26,11,30,10.90
2017,10,26,11,31,10.90
2017,10,26,11,32,11.00
2017,10,26,11,33,11.00
2017,10,26,11,34,11.10
2017,10,26,11,35,11.20
2017,10,26,11,36,11.20
2017,10,26,11,37,11.30
2017,10,26,11,38,11.30
2017,10,26,11,39,11.40
2017,10,26,11,40,11.40
2017,10,26,11,41,11.40
2017,10,26,11,42,11.40
2017,10,26,11,43,11.50
2017,10,26,11,44,11.50
2017,10,26,11,45,11.50
2017,10,26,11,46,11.60
2017,10,26,11,47,11.60
2017,10,26,11,48,11.60
2017,10,26,11,49,11.60
2017,10,26,11,50,11.70
2017,10,26,11,51,11.70
2017,10,26,11,52,11.70
2017,10,26,11,53,11.70
2017,10,26,11,54,11.70
2017,10,26,11,55,11.70
2017,10,26,11,56,11.70
2017,10,26,11,57,11.70
2017,10,26,11,58,11.70
2017,10,26,11,59,11.80
2017,10,26,12,00,11.80
2017,10,26,12,01,11.80
2017,10,26,12,02,11.90
2017,10,26,12,03,12.00
2017,10,26,12,04,12.00
2017,10,26,12,05,12.00
2017,10,26,12,06,12.10
2017,10,26,12,07,12.10
2017,10,26,12,08,12.10
2017,10,26,12,09,12.10
2017,10,26,12,10,12.10
2017,10,26,12,11,12.20
2017,10,26,12,12,12.10
2017,10,26,12,13,12.20
2017,10,26,12,14,12.20
2017,10,26,12,15,12.20
2017,10,26,12,16,12.20
2017,10,26,12,17,12.30
2017,10,26,12,18,12.30
2017,10,26,12,19,12.30
2017,10,26,12,20,12.30
2017,10,26,12,21,12.40
2017,10,26,12,22,12.40
2017,10,26,12,23,12.40
2017,10,26,12,24,12.40
2017,10,26,12,25,12.40
2017,10,26,12,26,12.30
2017,10,26,12,27,12.30
2017,10,26,12,28,12.30
2017,10,26,12,29,12.30
2017,10,26,12,30,12.30
2017,10,26,12,31,12.40
2017,10,26,12,32,12.40
2017,10,26,12,33,12.40
2017,10,26,12,34,12.50
2017,10,26,12,35,12.50
2017,10,26,12,36,12.50
2017,10,26,12,37,12.60
2017,10,26,12,38,12.60
2017,10,26,12,39,12.70
2017,10,26,12,40,12.80
2017,10,26,12,41,12.80
2017,10,26,12,42,12.90
2017,10,26,12,43,13.00
2017,10,26,12,44,13.10
2017,10,26,12,45,13.10
2017,10,26,12,46,13.10
2017,10,26,12,47,13.00
2017,10,26,12,48,13.00
2017,10,26,12,49,13.00
2017,10,26,12,50,12.90
2017,10,26,12,51,12.90
2017,10,26,12,52,12.90
2017,10,26,12,53,12.90
2017,10,26,12,54,12.90
2017,10,26,12,55,12.90
2017,10,26,12,56,12.90
2017,10,26,12,57,12.90
2017,10,26,12,58,12.80
2017,10,26,12,59,12.80
2017,10,26,13,00,12.90
2017,10,26,13,01,12.90
2017,10,26,13,02,13.00
2017,10,26,13,03,13.00
2017,10,26,13,04,13.00
2017,10,26,13,05,13.00
2017,10,26,13,06,13.10
2017,10,26,13,07,13.00
2017,10,26,13,08,13.00
2017,10,26,13,09,13.00
2017,10,26,13,10,13.00
2017,10,26,13,11,13.10
2017,10,26,13,12,13.10
2017,10,26,13,13,13.10
2017,10,26,13,14,13.10
2017,10,26,13,15,13.10
2017,10,26,13,16,13.10
2017,10,26,13,17,13.20
2017,10,26,13,18,13.20
2017,10,26,13,19,13.20
2017,10,26,13,20,13.20
2017,10,26,13,21,13.30
2017,10,26,13,22,13.30
2017,10,26,13,23,13.30
2017,10,26,13,24,13.30
2017,10,26,13,25,13.30
2017,10,26,13,26,13.30
2017,10,26,13,27,13.30
2017,10,26,13,28,13.30
2017,10,26,13,29,13.30
2017,10,26,13,30,13.30
2017,10,26,13,31,13.30
2017,10,26,13,32,13.40
2017,10,26,13,33,13.40
2017,10,26,13,34,13.50
2017,10,26,13,35,13.60
2017,10,26,13,36,13.60
2017,10,26,13,37,13.60
2017,10,26,13,38,13.60
2017,10,26,13,39,13.60
2017,10,26,13,40,13.60
2017,10,26,13,41,13.70
2017,10,26,13,42,13.70
2017,10,26,13,43,13.70
2017,10,26,13,44,13.80
2017,10,26,13,45,13.90
2017,10,26,13,46,14.10
2017,10,26,13,47,14.20
2017,10,26,13,48,14.20
2017,10,26,13,49,14.20
2017,10,26,13,50,14.20
2017,10,26,13,51,14.20
2017,10,26,13,52,14.20
2017,10,26,13,53,14.20
2017,10,26,13,54,14.10
2017,10,26,13,55,14.10
2017,10,26,13,56,14.00
2017,10,26,13,57,13.90
2017,10,26,13,58,13.90
2017,10,26,13,59,13.90
2017,10,26,14,00,13.90
2017,10,26,14,01,13.90
2017,10,26,14,02,13.90
2017,10,26,14,03,13.90
2017,10,26,14,04,13.90
2017,10,26,14,05,13.90
2017,10,26,14,06,13.90
2017,10,26,14,07,14.00
2017,10,26,14,08,14.00
2017,10,26,14,09,14.00
2017,10,26,14,10,14.00
2017,10,26,14,11,14.10
2017,10,26,14,12,14.10
2017,10,26,14,13,14.10
2017,10,26,14,14,14.10
2017,10,26,14,15,14.10
2017,10,26,14,16,14.10
2017,10,26,14,17,14.10
2017,10,26,14,18,14.00
2017,10,26,14,19,14.00
2017,10,26,14,20,14.00
2017,10,26,14,21,13.90
2017,10,26,14,22,13.90
2017,10,26,14,23,13.90
2017,10,26,14,24,13.90
2017,10,26,14,25,13.90
2017,10,26,14,26,14.00
2017,10,26,14,27,14.00
2017,10,26,14,28,14.10
2017,10,26,14,29,14.10
2017,10,26,14,30,14.10
2017,10,26,14,31,14.10
2017,10,26,14,32,14.10
2017,10,26,14,33,14.10
2017,10,26,14,34,14.10
2017,10,26,14,35,14.10
2017,10,26,14,36,14.10
2017,10,26,14,37,14.10
2017,10,26,14,38,14.20
2017,10,26,14,39,14.20
2017,10,26,14,40,14.20
2017,10,26,14,41,14.20
2017,10,26,14,42,14.20
2017,10,26,14,43,14.20
2017,10,26,14,44,14.20
2017,10,26,14,45,14.20
2017,10,26,14,46,14.30
2017,10,26,14,47,14.30
2017,10,26,14,48,14.30
2017,10,26,14,49,14.30
2017,10,26,14,50,14.30
2017,10,26,14,51,14.30
2017,10,26,14,52,14.30
2017,10,26,14,53,14.30
2017,10,26,14,54,14.30
2017,10,26,14,55,14.30
2017,10,26,14,56,14.40
2017,10,26,14,57,14.40
2017,10,26,14,58,14.40
2017,10,26,14,59,14.50
2017,10,26,15,00,14.50
2017,10,26,15,01,14.40
2017,10,26,15,02,14.40
2017,10,26,15,03,14.40
2017,10,26,15,04,14.50
2017,10,26,15,05,14.50
2017,10,26,15,06,14.60
2017,10,26,15,07,14.60
2017,10,26,15,08,14.60
2017,10,26,15,09,14.70
2017,10,26,15,10,14.70
2017,10,26,15,11,14.70
2017,10,26,15,12,14.70
2017,10,26,15,13,14.80
2017,10,26,15,14,14.70
2017,10,26,15,15,14.70
2017,10,26,15,16,14.70
2017,10,26,15,17,14.70
2017,10,26,15,18,14.60
2017,10,26,15,19,14.60
2017,10,26,15,20,14.60
2017,10,26,15,21,14.60
2017,10,26,15,22,14.60
2017,10,26,15,23,14.60
2017,10,26,15,24,14.60
2017,10,26,15,25,14.50
2017,10,26,15,26,14.50
2017,10,26,15,27,14.60
2017,10,26,15,28,14.50
2017,10,26,15,29,14.50
2017,10,26,15,30,14.50
2017,10,26,15,31,14.50
2017,10,26,15,32,14.50
2017,10,26,15,33,14.50
2017,10,26,15,34,14.60
2017,10,26,15,35,14.60
2017,10,26,15,36,14.60
2017,10,26,15,37,14.70
2017,10,26,15,38,14.70
2017,10,26,15,39,14.70
2017,10,26,15,40,14.70
2017,10,26,15,41,14.70
2017,10,26,15,42,14.70
2017,10,26,15,43,14.70
2017,10,26,15,44,14.70
2017,10,26,15,45,14.70
2017,10,26,15,46,14.70
2017,10,26,15,47,14.70
2017,10,26,15,48,14.70
2017,10,26,15,49,14.80
2017,10,26,15,50,14.80
2017,10,26,15,51,14.80
2017,10,26,15,52,14.90
2017,10,26,15,53,14.90
2017,10,26,15,54,14.90
2017,10,26,15,55,14.90
2017,10,26,15,56,14.90
2017,10,26,15,57,15.00
2017,10,26,15,58,15.00
2017,10,26,15,59,15.10
2017,10,26,16,00,15.10
2017,10,26,16,01,15.20
2017,10,26,16,02,15.20
2017,10,26,16,03,15.30
2017,10,26,16,04,15.30
2017,10,26,16,05,15.30
2017,10,26,16,06,15.30
2017,10,26,16,07,15.30
2017,10,26,16,08,15.30
2017,10,26,16,09,15.30
2017,10,26,16,10,15.30
2017,10,26,16,11,15.20
2017,10,26,16,12,15.20
2017,10,26,16,13,15.20
2017,10,26,16,14,15.10
2017,10,26,16,15,15.10
2017,10,26,16,16,15.10
2017,10,26,16,17,15.10
2017,10,26,16,18,15.10
2017,10,26,16,19,15.00
2017,10,26,16,20,15.00
2017,10,26,16,21,15.00
2017,10,26,16,22,14.90
2017,10,26,16,23,14.90
2017,10,26,16,24,14.90
2017,10,26,16,25,14.90
2017,10,26,16,26,14.90
2017,10,26,16,27,14.90
2017,10,26,16,28,14.80
2017,10,26,16,29,14.80
2017,10,26,16,30,14.80
2017,10,26,16,31,14.80
2017,10,26,16,32,14.70
2017,10,26,16,33,14.70
2017,10,26,16,34,14.70
2017,10,26,16,35,14.60
2017,10,26,16,36,14.60
2017,10,26,16,37,14.60
2017,10,26,16,38,14.60
2017,10,26,16,39,14.60
2017,10,26,16,40,14.60
2017,10,26,16,41,14.60
2017,10,26,16,42,14.60
2017,10,26,16,43,14.60
2017,10,26,16,44,14.60
2017,10,26,16,45,14.60
2017,10,26,16,46,14.60
2017,10,26,16,47,14.60
2017,10,26,16,48,14.60
2017,10,26,16,49,14.60
2017,10,26,16,50,14.60
2017,10,26,16,51,14.60
2017,10,26,16,52,14.50
2017,10,26,16,53,14.50
2017,10,26,16,54,14.50
2017,10,26,16,55,14.40
2017,10,26,16,56,14.40
2017,10,26,16,57,14.40
2017,10,26,16,58,14.40
2017,10,26,16,59,14.40
2017,10,26,17,00,14.40
2017,10,26,17,01,14.40
2017,10,26,17,02,14.40
2017,10,26,17,03,14.40
2017,10,26,17,04,14.40
2017,10,26,17,05,14.50
2017,10,26,17,06,14.50
2017,10,26,17,07,14.50
2017,10,26,17,08,14.50
2017,10,26,17,09,14.50
2017,10,26,17,10,14.50
2017,10,26,17,11,14.50
2017,10,26,17,12,14.50
2017,10,26,17,13,14.50
2017,10,26,17,14,14.50
2017,10,26,17,15,14.50
2017,10,26,17,16,14.50
2017,10,26,17,17,14.50
2017,10,26,17,18,14.50
2017,10,26,17,19,14.50
2017,10,26,17,20,14.50
2017,10,26,17,21,14.50
2017,10,26,17,22,14.40
2017,10,26,17,23,14.40
2017,10,26,17,24,14.40
2017,10,26,17,25,14.40
2017,10,26,17,26,14.40
2017,10,26,17,27,14.40
2017,10,26,17,28,14.40
2017,10,26,17,29,14.40
2017,10,26,17,30,14.40
2017,10,26,17,31,14.40
2017,10,26,17,32,14.30
2017,10,26,17,33,14.30
2017,10,26,17,34,14.30
2017,10,26,17,35,14.20
2017,10,26,17,36,14.20
2017,10,26,17,37,14.10
2017,10,26,17,38,14.10
2017,10,26,17,39,14.00
2017,10,26,17,40,14.00
2017,10,26,17,41,13.90
2017,10,26,17,42,13.80
2017,10,26,17,43,13.80
2017,10,26,17,44,13.70
2017,10,26,17,45,13.70
2017,10,26,17,46,13.60
2017,10,26,17,47,13.60
2017,10,26,17,48,13.50